Location: Boda
(47.1872°N, 9.5454°E)
Time: 08:45:54
(UTC+00:00)

ADEOS Rocket - Pass Details

Date: 14 May 2021
Orbit: 858 x 1307 km, 98.7° (Epoch: 16 June)

Event Time Altitude Azimuth Distance (km) Brightness Sun altitude
Rises 01:05:00 0° 146° (SE) 4,129 6.0 -19.9°
Reaches altitude 10° 01:07:37 10° 142° (SE) 3,211 5.5 -19.7°
Maximum altitude 01:14:55 57° 67° (ENE) 1,506 4.2 -19.1°
Drops below altitude 10° 01:22:29 10° 352° (N) 3,336 6.5 -18.5°
Sets 01:25:15 0° 349° (N) 4,300 7.1 -18.2°
